Regional Weather Roundup
Issued by NWS

Home | Current Version | Previous Version | Graphics & Text | Print | Product List | Glossary On
Versions: 1 2 3 4 5 6 7 8 9 10 11 12 13 14 15 16 17 18 19 20 21 22 23 24 25 26 27 28 29 30 31 32 33 34 35 36 37 38 39 40 41 42 43 44 45 46 47 48 49 50
000
ASUS43 KLOT 260404
RWRIL

ILLINOIS REGIONAL WEATHER ROUNDUP
NATIONAL WEATHER SERVICE CHICAGO/ROMEOVILLE IL
1100 PM CDT FRI MAY 25 2018

NOTE: "FAIR" INDICATES FEW OR NO CLOUDS BELOW 12,000 FEET WITH NO
SIGNIFICANT WEATHER AND/OR OBSTRUCTIONS TO VISIBILITY.

* THESE STATIONS ARE NOT UNDER NWS QUALITY CONTROL. THEY ALSO MAY NOT
  REPORT WEATHER SUCH AS PRECIPITATION OR FOG.

ILZ001-002-007-009-015-016-024-260500-
NORTHWEST ILLINOIS

CITY           SKY/WX    TMP DP  RH WIND       PRES   REMARKS
MOLINE         MOCLDY    72  60  66 N15       29.85R
STERLING*        N/A    N/A N/A N/A MISG        N/A
$$

ILZ003-004-008-010-011-017-018-260500-
NORTH CENTRAL ILLINOIS

CITY           SKY/WX    TMP DP  RH WIND       PRES   REMARKS
ROCKFORD       FAIR      69  64  84 W6        29.81S
FREEPORT*      CLOUDY    68  60  76 W10       29.83F
ROCHELLE*      FAIR      69  66  92 SW6       29.82F
DE KALB*       MOCLDY    72  66  82 SW10      29.82F
PERU*          FAIR      73  69  87 S5        29.83R
$$

ILZ005-006-012>014-019>023-260500-
NORTHEAST ILLINOIS

CITY           SKY/WX    TMP DP  RH WIND       PRES   REMARKS
CHICAGO-OHARE  CLOUDY    77  64  64 SW10      29.79R
CHICAGO-MIDWAY CLOUDY    76  66  71 SW7       29.80R
AURORA         CLOUDY    74  68  81 SW10      29.82R
LANSING*       LGT RAIN  74  68  82 W13       29.83S
JOLIET*        LGT RAIN  73  71  91 SW3       29.83S
WAUKEGAN       FAIR      72  65  78 SW3       29.77F
DUPAGE AIRPORT CLOUDY    74  67  78 SW13      29.81R
KANKAKEE*      DRIZZLE   70  67  90 SW5       29.84F
WHEELING       FAIR      78  65  63 SW5       29.80S HX  80
MORRIS*        FAIR      73  66  78 SW7       29.82R
NORTHERLY ISL    N/A     75  62  64 SW6         N/A
$$

LMZ740>746-260500-
SOUTHERN LAKE MICHIGAN

STATION/POSITION SKY/WX   TEMP    WIND        PRES    VSBY  WAVE
                          AIR SEA DIR/SP/G                  HT/PER
                          (F)     (DEG/KT/KT) (MB)    (MI)  (FT/S)
SOUTHERN BUOY              58 39  210/ 10/ 10 1008.1F         0
WILMETTE HARBOR            70 56  250/  4/  6   N/A           1
HARRISON CRIB              75     200/ 20/ 22   N/A
BURNHAM HARBOR             76     190/  7/ 12   N/A
CALUMET HARBOR             70     240/  8/ 12 1009.5R
BURNS HARBOR               76     190/  9/ 12 1009.5S
MICHIGAN CITY              75     230/ 18/ 22   N/A
MICHIGAN CITY 6N           70 61  250/  8/ 12   N/A           1
ST. JOSEPH                 67 60  260/  8/ 12 1008.7R         1
$$

ILZ025>027-034>036-040-047-049-050-058-095>099-260500-
WEST-CENTRAL ILLINOIS

CITY           SKY/WX    TMP DP  RH WIND       PRES   REMARKS
QUINCY         CLOUDY    70  66  87 SE5       29.83R
GALESBURG*     FAIR      68  67  96 CALM      29.84F
MACOMB*        CLEAR     68  67  98 S5        29.85S
PITTSFIELD*    CLOUDY    70  70  99 CALM      29.85S
$$

ILZ028>032-037-038-041>044-048-051>054-059>061-260500-
CENTRAL ILLINOIS

CITY           SKY/WX    TMP DP  RH WIND       PRES   REMARKS
PONTIAC        CLOUDY    71  70  98 S5        29.84F
BLOOMINGTON    LGT RAIN  69  67  93 S5        29.85S
DECATUR        FAIR      70  68  93 S6        29.85R
PEORIA         FAIR      68  67  96 CALM      29.84R FOG
LACON*         FAIR      69  68  96 CALM      29.82S
LINCOLN*       CLOUDY    71  71  99 CALM      29.84S
SPRINGFIELD    LGT RAIN  72  70  93 SE7       29.83F
TAYLORVILLE    HVY RAIN  70  69  98 NW6       29.86S
$$

ILZ033-039-045-046-055>057-062-063-260500-
EAST-CENTRAL ILLINOIS

CITY           SKY/WX    TMP DP  RH WIND       PRES   REMARKS
CHAMPAIGN      FAIR      70  70 100 SE7       29.85R
DANVILLE*      LGT RAIN  70  69  98 S3        29.83S
RANTOUL*       MOCLDY    71  70  97 S3        29.84R
MATTOON        FAIR      71  67  87 SW7       29.85S
PARIS*         FAIR      73  65  77 SW9       29.87S
$$

ILZ079-100>102-260500-
SOUTHWEST ILLINOIS

CITY           SKY/WX    TMP DP  RH WIND       PRES   REMARKS
BELLEVILLE     PTCLDY    72  66  82 W5        29.84R
CAHOKIA*       CLOUDY    74  64  71 SW9       29.84R
SPARTA*        CLOUDY    70  70 100 S6        29.87R
$$

ILZ064>066-069>071-074>076-080>082-084>086-088>090-092>094-260500-
SOUTH-CENTRAL ILLINOIS

CITY           SKY/WX    TMP DP  RH WIND       PRES   REMARKS
CARBONDALE     FAIR      68  67  96 SE3       29.86R
CAIRO*         FAIR      71  69  95 CALM      29.87S
EFFINGHAM*     FAIR      69  67  96 CALM      29.88S
MT. VERNON     FAIR      69  67  93 S3        29.87R
CENTRALIA*     CLOUDY    69  69  98 SE3       29.85S
SALEM*         FAIR      71  68  90 SE3       29.86S
METROPOLIS*    FAIR      69  68  98 CALM      29.88S
$$

ILZ067-068-072-073-078-083-087-091-260500-
SOUTHEAST ILLINOIS

CITY           SKY/WX    TMP DP  RH WIND       PRES   REMARKS
LAWRENCEVILLE  FAIR      76  63  64 SW9       29.86S
FLORA*         FAIR      70  68  95 S3        29.87S
FAIRFIELD*     FAIR      69  68  98 CALM      29.86S
HARRISBURG*    FAIR      69  69  99 CALM      29.87S
ROBINSON*      FAIR      71  66  84 W3        29.87S
CARMI*         FAIR      70  67  90 SW3       29.87S
$$

ABBREVIATIONS USED IN REMARKS
   TC - TEMPERATURE IN CELSIUS
  WCI - WIND CHILL INDEX
   HX - HEAT INDEX
  VSB - VISIBILITY
$$





USA.gov is the U.S. government's official web portal to all federal, state and local government web resources and services.